Location: Winthrop
(48.4780°N, 120.1850°W)
Time: 02:53:44
(UTC-07:00)

Transit 2A - Pass Details

Date: 20 June 2024
Orbit: 591 x 960 km, 66.7° (Epoch: 23 July)

Event Time Altitude Azimuth Distance (km) Brightness Sun altitude
Rises 23:06:12 0° 325° (NW) 3,442 11.3 -13.5°
Reaches altitude 10° 23:09:02 10° 338° (NNW) 2,558 10.2 -13.7°
Maximum altitude 23:14:04 27° 35° (NE) 1,705 8.1 -14.1°
Drops below altitude 10° 23:19:19 10° 91° (E) 2,679 8.6 -14.5°
Enters shadow 23:21:52 - 102° (ESE) 3,480 9.1 -14.6°
